Location: Dos Palmas
(32.4468°N, 116.8732°W)
Time: 22:58:58
(UTC+00:00)

SL-19 R/B - Pass Details

Date: 20 June 2021
Orbit: 796 x 1009 km, 99.4° (Epoch: 01 August)

Event Time Altitude Azimuth Distance (km) Brightness Sun altitude
Rises 09:21:44 0° 18° (NNE) 3,337 8.5 -29.9°
Reaches altitude 10° 09:24:04 10° 22° (NNE) 2,420 7.5 -29.7°
Enters shadow 09:29:14 60° 96° (E) 962 4.4 -29.2°
